Location: Abyssinia Baptist Church
(32.7840°N, 96.7578°W)
Time: 01:33:55
(UTC+00:00)

Cosmos 44 - Pass Details

Date: 08 December 2021
Orbit: 584 x 777 km, 65.1° (Epoch: 28 January)

Event Time Altitude Azimuth Distance (km) Brightness Sun altitude
Rises 12:26:16 0° 194° (SSW) 3,236 6.8 -10.7°
Reaches altitude 10° 12:28:43 10° 190° (S) 2,316 6.1 -10.2°
Maximum altitude 12:33:55 54° 114° (ESE) 933 4.4 -9.2°
Drops below altitude 10° 12:39:03 10° 38° (NE) 2,290 6.2 -8.2°
Sets 12:41:28 0° 34° (NE) 3,197 6.9 -7.7°
